Overview Statistics Trail Chart Weather Telemetry Raw packets
 

This is the latest recevied weather packets stored in our database for station/object GBTWP-2. If no packets are shown the sender has not sent any weather packets the latest 10 day(s).

<< 5 6 7 8 9 10 11 >>
Time Temp. Humidity Pressure Rain* Wind** Luminosity Snow
1788643919 25° C 60% 1018.4 hPa 0 mm - 87 W/m² -
1788643619 25° C 59% 1018.5 hPa 0 mm - 83 W/m² -
1788643320 25° C 59% 1018.5 hPa 0 mm - 56 W/m² -
1788643019 25° C 58% 1018.7 hPa 0 mm - 49 W/m² -
1788642720 25° C 59% 1018.5 hPa 0 mm - 44 W/m² -
1788642420 25° C 59% 1018.6 hPa 0 mm - 99 W/m² -
1788642120 24.44° C 61% 1018.4 hPa 0 mm - 77 W/m² -
1788641819 25° C 60% 1018.4 hPa 0 mm - 85 W/m² -
1788641520 25° C 59% 1018.4 hPa 0 mm - 74 W/m² -
1788641219 25° C 60% 1018.4 hPa 0 mm - 48 W/m² -
1788640920 25.56° C 58% 1018.5 hPa 0 mm - 70 W/m² -
1788640617 25.56° C 60% 1018.6 hPa 0 mm - 142 W/m² -
1788640320 26.11° C 57% 1018.5 hPa 0 mm - 246 W/m² -
1788640019 25.56° C 57% 1018.5 hPa 0 mm - 425 W/m² -
1788639720 26.11° C 56% 1018.6 hPa 0 mm - 429 W/m² -
1788639419 25.56° C 56% 1018.5 hPa 0 mm - 441 W/m² -
1788639120 25.56° C 56% 1018.7 hPa 0 mm - 448 W/m² -
1788638819 25.56° C 58% 1018.7 hPa 0 mm - 459 W/m² -
1788638520 25.56° C 58% 1018.7 hPa 0 mm - 470 W/m² -
1788638219 25.56° C 56% 1018.6 hPa 0 mm - 486 W/m² -
1788637920 25° C 59% 1018.7 hPa 0 mm - 487 W/m² -
1788637617 25.56° C 58% 1018.5 hPa 0 mm - 178 W/m² -
1788637318 26.11° C 58% 1018.7 hPa 0 mm - 539 W/m² -
1788637020 25.56° C 58% 1018.7 hPa 0 mm - 523 W/m² -
1788636719 25.56° C 56% 1018.8 hPa 0 mm - 523 W/m² -

* Rain latest hour (hover to see other rain measurements)
** Current wind speed in m/s (hover to see current wind gust speed)